GSAT-7

Last updated on Sun Dec 14 2025 00:02:50 GMT+0000 (Coordinated Universal Time)

1 39234U 13044B 25347.05322352 -.00000064 00000+0 00000+0 0 9995 2 39234 0.0680 94.4206 0007926 179.8379 260.8986 1.00271892 43398
UTC large
Height (km)
Speed (km/s)
/
Latitude / Longitude
Inclination (degrees)
Orbital Period (minutes)
Azimuth
Elevation
Range (km)
Doppler Factor

Next 0 passes for location: London (51.5072 / 0.1276)

Sorry there are no passes over London.